Wind_Speed
16 19 24 21 25 27 25 13 16 18 19 23 30 33 29 28 29 37 35 28 34 33 33 34 34 33 33 33 32 30 28 26 26 24 23 21 21 21 20 20 22 23 25 27
16 21 17 22 23 22 27 31 32 29 22 23 27 33 32 32 30 33 34 31 34 31 31 34 35 34 33 31 29 27 25 26 25 25 24 22 21 21 20 21 22 24 25 28
19 15 11 16 14 23 27 27 29 30 30 35 37 44 37 31 28 30 35 32 32 33 30 29 34 33 30 29 26 25 25 26 26 25 24 23 22 21 21 22 23 25 26 28
16 16 20 23 24 16 21 24 24 24 22 14 14 10 36 31 22 24 30 32 31 31 32 32 32 31 29 27 27 27 27 27 26 26 25 24 23 21 21 23 24 26 26 27
11 13 13 14 14 21 20 16 16 16 18 20 25 12 29 22 18 21 22 27 28 30 32 32 32 32 30 28 28 28 29 29 28 27 26 25 22 21 22 24 25 24 25 27
17 19 21 17 11 10 12 11 10 15 14 6 22 20 22 35 31 24 17 21 27 30 32 33 34 35 33 32 33 32 31 30 29 28 27 24 22 22 23 23 23 22 24 26
13 17 17 24 23 21 13 9 2 4 2 7 9 15 31 22 13 13 18 25 25 28 32 32 37 38 38 38 36 34 32 32 30 29 26 24 23 23 23 22 20 20 22 24
10 8 8 12 20 15 15 20 7 6 3 5 9 12 11 15 16 23 23 21 24 29 29 32 35 36 33 36 36 35 32 31 29 28 26 24 23 22 20 19 18 18 20 22
6 7 7 11 12 15 13 26 25 12 12 5 14 24 22 15 19 17 18 20 23 23 28 31 33 33 32 35 33 30 28 29 28 27 25 24 22 20 19 18 16 17 17 21
8 12 13 17 20 19 22 9 7 9 3 5 8 14 20 12 10 16 19 16 15 22 27 24 27 31 32 32 30 30 30 27 26 26 24 22 20 20 18 15 15 14 16 18
8 12 14 16 12 16 20 25 14 10 10 4 3 8 11 18 18 27 20 18 15 13 20 22 26 30 30 30 31 30 29 26 25 22 22 20 20 19 16 14 14 12 13 9
14 11 18 23 20 22 27 23 26 18 7 11 8 21 26 17 12 14 13 11 12 16 17 20 23 27 29 31 30 28 25 24 23 22 20 20 20 18 16 15 13 11 11 4
14 7 10 8 13 21 27 31 30 32 35 32 8 13 5 7 25 30 28 20 12 11 17 21 23 26 29 28 26 24 23 23 23 20 19 19 20 18 17 16 14 12 12 9
24 20 19 10 10 13 18 13 20 32 29 38 48 49 39 37 29 24 18 16 12 12 18 24 26 27 26 24 22 22 22 23 21 20 18 19 20 20 18 18 16 15 17 15
14 26 28 36 37 32 32 36 35 32 38 29 64 38 41 35 31 26 26 32 35 26 17 28 29 27 26 24 22 21 23 23 21 19 18 19 21 20 20 20 18 18 21 20
21 21 25 42 36 31 39 41 36 48 49 46 49 60 48 43 40 40 32 24 27 23 24 30 33 30 27 24 20 18 19 20 20 20 19 20 20 22 22 22 21 20 22 24
26 26 19 26 19 21 31 41 37 45 55 59 52 62 46 43 45 42 36 34 34 30 23 31 39 32 28 23 20 18 17 19 20 21 21 21 21 23 24 24 23 22 24 26
30 27 24 27 19 6 35 30 24 26 31 40 51 50 49 45 41 36 37 39 35 34 34 33 46 36 28 24 24 24 21 19 18 20 22 22 22 23 26 26 25 24 24 26
22 25 19 16 17 34 48 33 22 31 36 30 39 38 36 33 35 38 31 33 32 36 37 35 43 50 36 31 27 25 25 20 19 19 23 24 24 25 26 27 27 26 25 24
17 16 24 23 9 7 9 5 24 28 42 33 29 30 32 34 36 32 27 27 29 33 40 43 37 47 50 45 39 26 24 22 24 23 23 26 27 28 27 28 28 27 27 25
20 14 21 31 21 19 30 28 34 19 19 21 26 24 21 26 31 25 27 26 24 26 35 44 41 40 43 47 45 38 30 28 28 29 29 29 30 28 27 29 28 27 27 25
22 12 19 19 20 14 18 19 12 16 24 20 21 22 19 21 24 24 27 27 26 23 26 37 45 39 38 40 44 41 37 34 36 34 34 32 31 27 27 28 28 28 27 26
17 22 22 20 23 38 45 34 29 18 24 19 17 16 13 14 17 17 21 18 17 18 20 28 40 44 41 41 38 39 39 38 37 33 32 32 28 25 28 28 28 27 27 27
28 25 24 27 36 33 36 39 24 19 21 19 12 11 12 12 12 9 12 10 9 10 12 22 35 42 43 41 40 39 38 34 32 30 29 29 26 27 28 27 27 27 27 27
31 27 34 35 38 35 28 32 37 28 15 15 10 2 18 15 15 14 14 13 11 11 10 12 19 28 31 31 30 30 29 28 25 26 26 26 24 25 27 28 29 30 28 29
39 39 37 44 32 31 31 27 32 31 26 20 8 7 17 24 18 18 18 15 15 18 17 17 17 20 24 26 28 28 28 25 20 16 18 20 25 26 27 30 30 31 32 33
Wind_Direction
257 251 253 266 257 256 251 264 272 278 280 268 268 270 268 266 260 248 243 243 234 236 237 235 235 239 241 242 245 250 253 253 251 246 249 254 258 261 267 275 281 286 291 294
263 268 281 272 264 263 259 261 262 267 273 273 279 275 267 263 259 250 244 234 228 231 230 232 231 233 238 242 246 249 249 243 238 242 246 248 252 259 268 276 283 290 295 297
265 268 268 290 282 263 257 260 268 268 275 281 283 282 274 272 263 251 240 234 230 228 226 230 231 232 237 239 245 247 239 233 237 241 244 247 251 259 270 281 288 294 297 298
273 276 264 267 267 278 270 262 270 278 277 276 285 292 277 277 265 249 242 237 231 228 228 227 229 232 236 242 244 239 232 235 238 240 240 244 248 259 271 283 291 296 297 298
266 273 274 276 284 262 262 278 286 276 272 271 267 269 276 282 277 254 243 243 237 232 232 232 238 241 241 241 241 237 234 235 238 238 239 244 251 264 276 286 292 294 295 298
276 264 263 265 275 285 264 261 269 282 264 258 266 240 270 275 277 267 243 238 237 235 234 235 237 238 239 238 236 234 234 237 238 238 238 243 253 265 277 285 288 291 296 301
297 285 274 260 261 263 255 221 2 296 286 232 239 241 250 273 276 274 252 241 239 237 235 233 235 240 239 236 237 237 237 237 237 236 237 244 256 270 279 281 285 292 299 304
285 298 270 254 242 249 242 220 195 202 248 296 273 244 269 289 275 258 263 258 246 237 238 237 236 238 238 237 237 237 235 234 234 231 233 244 258 269 273 277 283 292 300 306
287 258 260 272 265 240 225 216 238 275 283 295 253 269 272 257 268 272 271 266 253 248 239 238 237 236 231 231 231 232 231 231 228 226 234 248 260 265 269 273 281 293 303 308
266 292 273 265 259 244 229 227 188 200 238 262 267 264 256 269 268 264 263 270 270 251 241 244 237 232 228 222 220 220 222 222 221 227 238 250 256 260 262 268 278 292 304 310
268 249 266 268 259 263 247 230 221 214 221 211 300 262 290 265 250 257 275 277 274 269 239 244 236 230 222 215 213 214 216 219 226 232 240 246 253 254 258 264 273 290 298 306
279 280 266 269 272 270 267 255 245 224 226 229 263 268 252 297 259 263 295 305 273 266 246 241 225 218 213 208 209 212 217 224 227 232 239 246 250 249 251 256 265 279 280 250
289 268 304 276 264 256 258 258 254 242 246 252 224 255 319 288 265 271 275 280 286 240 251 235 218 211 206 205 209 215 220 222 225 232 241 250 250 247 245 248 257 260 249 232
299 276 263 269 278 290 290 272 268 249 240 249 246 252 257 270 281 273 279 272 263 263 244 224 212 207 204 204 207 212 218 221 227 235 245 252 250 246 244 246 252 250 245 238
293 278 281 275 273 282 284 274 263 259 254 246 258 263 272 284 291 293 280 263 280 273 269 224 212 205 201 200 204 211 216 223 230 238 248 254 250 246 244 245 250 247 249 246
290 288 294 294 294 288 278 268 266 257 263 262 266 267 263 276 288 285 284 290 281 281 270 227 215 208 205 201 204 211 216 224 233 240 248 255 256 248 245 246 249 249 257 255
283 287 292 289 292 296 285 266 271 264 258 258 263 267 279 285 295 286 284 282 277 254 229 223 214 209 201 201 207 213 223 231 239 245 250 256 260 253 249 249 250 253 259 265
271 276 274 274 294 233 264 245 278 279 271 271 271 278 282 284 291 284 278 277 267 245 227 217 213 208 205 204 215 221 227 239 252 258 256 258 262 259 253 252 252 255 260 266
268 263 255 254 245 276 278 256 260 294 280 291 278 280 282 284 281 267 281 280 265 238 228 219 215 213 217 223 225 229 228 238 256 271 265 261 264 261 254 253 255 256 261 264
265 270 254 250 251 240 292 244 241 282 283 261 270 270 275 281 277 276 276 272 265 245 231 220 215 216 217 224 232 235 234 249 261 269 268 260 261 258 253 252 254 257 260 265
272 267 251 256 248 258 266 278 270 292 294 259 257 265 261 264 266 266 267 272 272 260 238 226 224 218 220 224 232 236 244 257 261 265 262 256 259 257 252 252 256 258 260 264
266 260 268 280 249 248 265 297 325 308 290 297 259 252 247 245 251 263 266 268 268 264 247 231 226 224 222 222 231 238 247 257 258 257 258 255 255 254 252 253 255 258 261 264
245 253 268 269 282 301 305 301 315 289 301 282 266 236 242 238 246 257 258 259 266 264 245 226 218 220 223 226 233 239 246 251 253 247 250 252 251 250 251 254 257 260 262 264
265 270 265 279 285 294 303 306 296 321 301 258 274 212 181 171 174 204 232 242 250 255 243 223 214 213 219 225 231 236 242 245 241 241 246 251 253 252 254 258 261 263 265 267
273 272 281 283 289 302 304 302 303 311 297 261 256 213 190 178 172 185 218 221 220 215 195 185 198 213 219 222 226 226 227 229 235 243 248 251 251 254 260 263 264 265 265 267
277 280 276 283 297 295 298 300 302 310 319 306 301 175 199 201 180 190 216 236 238 220 207 202 196 193 192 196 205 214 221 220 218 226 240 251 257 261 263 265 265 265 266 266
Height
3031 3031 3030 3033 3034 3034 3034 3033 3032 3032 3032 3029 3026 3023 3024 3027 3026 3025 3029 3032 3036 3039 3045 3049 3052 3055 3058 3061 3063 3066 3069 3071 3072 3074 3076 3078 3080 3081 3082 3082 3082 3082 3080 3079
3030 3027 3030 3029 3031 3031 3031 3029 3029 3029 3029 3026 3022 3017 3016 3017 3018 3019 3022 3024 3027 3032 3037 3041 3044 3048 3051 3055 3058 3060 3063 3064 3067 3069 3072 3074 3076 3077 3077 3078 3077 3076 3075 3073
3025 3027 3026 3026 3026 3026 3026 3026 3025 3026 3025 3022 3018 3008 3008 3010 3011 3011 3013 3018 3021 3026 3030 3034 3037 3042 3047 3050 3053 3055 3057 3059 3062 3064 3067 3069 3070 3072 3073 3072 3072 3071 3069 3067
3021 3022 3021 3022 3022 3024 3021 3023 3023 3023 3023 3019 3016 3005 2999 3002 3004 3004 3008 3011 3015 3019 3024 3027 3030 3035 3041 3045 3047 3049 3051 3054 3057 3059 3062 3064 3066 3067 3068 3068 3067 3065 3063 3061
3019 3018 3018 3018 3019 3020 3020 3020 3021 3020 3019 3016 3012 3013 2989 2995 2998 3001 3004 3007 3010 3014 3018 3022 3025 3030 3034 3037 3040 3042 3045 3048 3051 3054 3057 3059 3062 3063 3063 3063 3061 3060 3058 3056
3013 3015 3014 3014 3015 3016 3017 3018 3018 3018 3016 3012 3006 3006 2986 2990 2994 2996 3000 3002 3004 3007 3011 3015 3019 3022 3026 3030 3032 3035 3038 3042 3045 3048 3051 3054 3056 3058 3058 3058 3057 3055 3053 3051
3010 3009 3009 3009 3011 3013 3015 3016 3017 3018 3019 3005 3000 2997 2979 2987 2990 2991 2992 2995 2997 3000 3003 3006 3010 3013 3018 3021 3024 3028 3032 3035 3039 3042 3046 3048 3051 3052 3052 3052 3051 3050 3048 3046
3008 3005 3004 3004 3005 3008 3008 3013 3011 3017 3015 3004 2997 2982 2976 2981 2984 2986 2987 2989 2991 2993 2996 2999 3003 3006 3011 3014 3018 3021 3025 3029 3032 3036 3040 3043 3045 3045 3046 3046 3045 3045 3043 3041
3007 3002 3002 3002 3003 3006 3005 3006 3010 3010 3007 3007 2992 2978 2975 2979 2981 2983 2983 2983 2985 2987 2990 2992 2995 2999 3002 3007 3012 3016 3019 3022 3026 3030 3034 3037 3038 3039 3039 3040 3041 3040 3039 3037
3006 3001 2998 2998 2999 3001 3002 3005 3006 3008 3008 3009 2981 2976 2973 2975 2976 2978 2978 2978 2979 2979 2983 2986 2988 2991 2996 3001 3006 3009 3012 3017 3021 3024 3028 3031 3033 3034 3034 3035 3036 3036 3034 3032
3003 3001 2996 2996 2995 2997 2998 2998 3000 3001 3000 2998 2993 2970 2970 2970 2972 2972 2974 2974 2974 2975 2977 2980 2982 2985 2989 2994 2999 3003 3007 3012 3016 3020 3023 3025 3027 3028 3028 3030 3031 3030 3030 3028
3000 2996 2991 2989 2992 2992 2992 2992 2995 2995 2994 2991 2988 2964 2970 2968 2969 2970 2970 2970 2970 2972 2972 2974 2976 2980 2983 2988 2993 2998 3002 3007 3011 3014 3017 3019 3021 3022 3022 3025 3026 3026 3025 3023
2996 2993 2987 2983 2985 2986 2985 2984 2987 2988 2988 2980 2984 2961 2963 2966 2967 2966 2967 2968 2968 2967 2969 2970 2972 2975 2980 2985 2989 2994 2998 3002 3005 3008 3011 3013 3015 3016 3017 3019 3020 3020 3020 3019
2992 2989 2989 2985 2983 2982 2980 2979 2982 2983 2980 2966 2959 2952 2962 2964 2965 2964 2965 2964 2965 2966 2965 2967 2969 2974 2978 2981 2985 2989 2993 2996 2999 3003 3005 3007 3009 3010 3011 3013 3015 3014 3015 3014
2987 2981 2980 2977 2976 2976 2972 2971 2971 2970 2962 2970 2932 2952 2955 2957 2960 2959 2957 2958 2958 2961 2963 2965 2968 2971 2974 2977 2981 2984 2987 2991 2995 2998 3000 3002 3003 3004 3005 3007 3009 3008 3009 3009
2981 2975 2972 2964 2967 2969 2962 2960 2962 2960 2957 2951 2948 2936 2951 2952 2955 2951 2952 2953 2952 2954 2958 2961 2965 2967 2970 2973 2977 2980 2983 2986 2989 2992 2994 2995 2997 2998 2999 3001 3002 3002 3003 3003
2975 2972 2969 2959 2963 2961 2953 2947 2952 2949 2949 2944 2939 2929 2944 2945 2945 2944 2944 2945 2943 2944 2948 2952 2958 2963 2965 2968 2971 2975 2978 2980 2983 2985 2987 2989 2991 2992 2993 2995 2996 2996 2996 2997
2965 2966 2966 2955 2958 2955 2930 2944 2943 2940 2936 2938 2934 2934 2938 2939 2935 2932 2932 2931 2931 2934 2937 2941 2949 2956 2959 2961 2964 2968 2970 2974 2977 2979 2981 2983 2984 2985 2986 2988 2989 2989 2990 2990
2957 2959 2958 2954 2949 2937 2925 2934 2938 2934 2923 2935 2928 2928 2927 2929 2926 2917 2925 2921 2920 2924 2928 2934 2938 2945 2951 2954 2958 2961 2963 2967 2970 2973 2974 2976 2977 2978 2979 2982 2982 2982 2983 2984
2951 2952 2952 2948 2945 2940 2928 2927 2931 2928 2914 2925 2920 2918 2918 2920 2916 2916 2915 2912 2911 2914 2918 2923 2928 2933 2938 2943 2949 2953 2956 2960 2964 2966 2968 2969 2970 2970 2972 2974 2974 2975 2976 2976
2943 2943 2941 2937 2934 2927 2923 2925 2923 2925 2918 2911 2911 2911 2909 2910 2910 2910 2909 2906 2905 2905 2908 2914 2919 2924 2930 2935 2941 2945 2949 2954 2957 2958 2959 2961 2961 2963 2964 2965 2967 2968 2968 2969
2936 2935 2933 2930 2926 2923 2921 2920 2920 2918 2909 2905 2903 2902 2900 2901 2903 2903 2902 2899 2897 2898 2899 2904 2910 2916 2921 2927 2932 2937 2942 2946 2947 2948 2951 2952 2953 2955 2956 2958 2959 2960 2961 2961
2929 2926 2926 2927 2921 2916 2915 2913 2912 2908 2904 2900 2896 2894 2893 2893 2896 2897 2896 2894 2892 2891 2892 2894 2899 2907 2913 2919 2924 2929 2933 2934 2936 2939 2943 2945 2946 2948 2949 2950 2951 2952 2953 2954
2918 2918 2917 2917 2911 2910 2908 2907 2904 2900 2897 2894 2892 2887 2888 2888 2890 2892 2890 2891 2890 2889 2887 2888 2892 2897 2903 2909 2915 2919 2923 2925 2929 2932 2935 2937 2939 2940 2941 2942 2943 2944 2945 2946
2911 2911 2908 2906 2903 2902 2902 2900 2896 2892 2890 2887 2886 2881 2883 2884 2886 2887 2888 2889 2889 2888 2887 2888 2890 2894 2898 2903 2907 2911 2914 2918 2922 2925 2928 2930 2931 2933 2934 2935 2936 2936 2937 2937
2901 2900 2900 2893 2898 2896 2892 2894 2891 2886 2883 2880 2876 2873 2877 2878 2882 2883 2886 2885 2885 2887 2887 2888 2889 2891 2893 2896 2899 2903 2907 2910 2914 2917 2920 2922 2924 2924 2925 2926 2927 2927 2928 2927